Miscellaneous Local Product
Issued by NWS Hastings, NE

Home | Current Version | Previous Version | Text Only | Print | Product List | Glossary Off
Versions: 1 2 3 4 5 6 7 8 9 10 11 12 13 14 15 16 17 18 19 20 21 22 23 24 25 26 27 28 29 30 31 32 33 34 35 36 37 38 39 40 41 42 43 44 45 46 47 48 49 50

000
AXUS43 KGID 282102
MISGRI

GID CWA HOURLY WEATHER ROUNDUP
NATIONAL WEATHER SERVICE HASTINGS NE
400 PM CDT TUE JUL 28 2015

NOTE: "FAIR" INDICATES FEW OR NO CLOUDS BELOW 12,000 FEET WITH NO
SIGNIFICANT WEATHER AND/OR OBSTRUCTIONS TO VISIBILITY.

...SOUTH CENTRAL NEBRASKA...

CITY           SKY/WX    TMP DP  RH WIND       PRES   REMARKS
GRAND ISLAND   MOSUNNY   80  55  42 N15       29.98R
HASTINGS       MOSUNNY   82  61  48 N18       29.98R
KEARNEY        MOSUNNY   82  54  36 N17       29.99S
ORD            MOSUNNY   84  53  34 N10       29.99R
YORK           CLOUDY    77  72  83 N12G23    29.94R
AURORA         CLOUDY    79  66  64 N17       29.96R
LEXINGTON      MOSUNNY   83  55  37 N12       30.02R
HOLDREGE       SUNNY     81  54  39 N15       30.00S
HEBRON         SUNNY     86  74  66 N16       29.90R HX  94

...NEBRASKA PANHANDLE...

CITY           SKY/WX    TMP DP  RH WIND       PRES   REMARKS
CHADRON        SUNNY     81  33  17 NW20G31   30.07S
ALLIANCE       SUNNY     80  35  19 NW14G22   30.10S
SCOTTSBLUFF    SUNNY     80  30  16 NW7G17    30.11F
SIDNEY         SUNNY     82  32  16 N17G24    30.14S

...WESTERN AND NORTH CENTRAL NEBRASKA...

CITY           SKY/WX    TMP DP  RH WIND       PRES   REMARKS
VALENTINE      SUNNY     83  37  19 W12       30.02S
AINSWORTH      SUNNY     81  45  27 NW5G16    30.03S
ONEILL         SUNNY     78  53  42 NW13      30.00R
BROKEN BOW     MOSUNNY   85  53  33 N9        30.02R
IMPERIAL       SUNNY     84  41  21 N9G22     30.08S
NORTH PLATTE   SUNNY     84  46  26 N10       30.04R
MCCOOK         SUNNY     87  50  27 N16G22    30.02S

...EASTERN NEBRASKA...

CITY           SKY/WX    TMP DP  RH WIND       PRES   REMARKS
NORFOLK        CLOUDY    80  56  43 N13G25    29.96R
SO SIOUX CITY  CLOUDY    79  68  69 NW14      29.92R
TEKAMAH        PTSUNNY   80  75  84 NW15G22   29.90R
COLUMBUS       CLOUDY    79  66  65 N7        29.94S
ALBION         PTSUNNY   78  52  40 N10       29.99R
OMAHA EPPLEY   LGT RAIN  88  74  63 W8        29.87R HX  96
OFFUTT AFB     PTSUNNY   89  77  66 SW5       29.86R HX 101
MILLARD        PTSUNNY   88  76  67 W3        29.87R HX  98
LINCOLN        PTSUNNY   93  74  53 VRB6      29.88S HX 103
NEBRASKA CITY  CLOUDY    89  73  59 S8        29.87R HX  97
BEATRICE       MOSUNNY   91  73  56 W3        29.86S HX  99
FALLS CITY     SUNNY     94  77  57 S13G22    29.84S HX 108

...NORTHERN KANSAS...

CITY           SKY/WX    TMP DP  RH WIND       PRES   REMARKS
GOODLAND       SUNNY     85  46  25 N16G23    30.08S
HILL CITY      PTSUNNY   87  55  33 N20G28    29.99R
NORTON         CLEAR     81  48  32 N16G22    30.00S
PHILLIPSBURG   SUNNY     90  55  31 N17G24    29.96S
SMITH CENTER   SUNNY     84  66  54 N18       29.94R
HAYS           SUNNY     88  64  45 N17       29.93R
RUSSELL        SUNNY     92  74  55 N18G24    29.88R HX 101
CONCORDIA      SUNNY     94  73  50 N8        29.85S HX 103
SALINA         SUNNY    102  69  34 S20G25    29.82S HX 109
TOPEKA         SUNNY     96  72  45 S18       29.85F HX 104



USA.gov is the U.S. government's official web portal to all federal, state and local government web resources and services.